Wind_Speed
2 3 6 6 1 3 7 4 2 2 2 1 4 7 13 6 5 7 8 7 7 7 7 10 9 9 9 7 5 3 0 2 2 1 1 2 1 1 2 3 1 1 2 1
4 4 4 6 5 5 4 4 2 2 2 3 3 11 12 7 7 9 12 12 11 5 6 10 8 6 6 5 5 3 3 4 4 2 4 3 3 2 2 3 3 4 3 4
5 1 7 7 3 6 2 5 3 3 2 1 5 7 5 3 4 6 6 7 7 12 11 8 12 8 6 5 5 6 6 5 4 4 5 7 7 6 5 4 4 4 5 4
3 2 6 5 4 4 4 5 5 2 2 3 3 5 6 4 7 4 7 4 6 8 6 8 12 10 7 6 6 7 7 7 7 6 5 5 1 3 2 2 4 3 4 5
4 6 7 4 5 6 5 5 5 2 3 3 2 1 7 4 5 3 6 4 4 4 7 10 12 13 9 6 6 7 8 8 8 6 5 4 3 4 4 2 1 3 6 7
2 1 5 7 3 5 8 6 6 4 2 2 4 4 5 3 2 4 2 1 3 4 7 11 12 11 10 8 7 7 7 9 9 8 7 5 5 5 3 1 2 3 5 6
1 1 1 3 7 3 2 5 3 3 2 5 1 2 9 7 5 4 7 3 4 5 6 7 9 11 9 8 7 6 7 9 8 8 7 6 5 4 2 1 1 2 3 5
6 2 7 4 5 6 4 5 4 6 3 3 1 5 5 2 2 4 4 6 6 5 4 5 8 9 9 9 7 6 6 7 7 6 7 6 5 4 4 3 3 3 3 4
5 1 1 1 3 5 6 4 4 6 2 2 3 6 8 2 3 5 4 6 6 5 5 5 6 7 8 7 6 6 5 5 4 4 4 4 4 3 3 2 2 2 2 3
6 4 2 1 3 3 4 7 3 2 1 4 4 4 5 2 2 2 4 5 5 4 5 5 9 8 7 7 6 5 5 4 3 2 2 2 2 2 1 1 2 2 2 2
5 3 1 3 6 8 4 3 3 4 3 4 1 5 5 4 4 6 7 6 6 6 6 6 8 7 8 9 10 9 9 7 6 5 3 2 2 1 1 1 1 1 1 1
5 4 4 6 0 1 2 6 5 4 4 3 2 5 2 6 6 6 6 5 5 6 6 4 6 7 10 11 13 13 12 11 10 8 6 5 4 3 2 2 2 2 3 3
7 2 4 1 1 2 4 4 4 4 3 5 4 4 2 3 3 6 8 7 6 5 5 5 7 10 12 13 14 15 16 15 12 11 9 8 6 4 3 3 4 4 4 4
7 3 5 8 5 6 6 7 10 10 7 5 7 2 2 3 5 4 6 6 7 6 5 3 4 9 10 11 11 13 15 15 14 13 12 10 8 7 6 6 6 6 6 6
6 5 4 2 2 3 4 9 10 17 15 9 8 12 7 9 11 10 9 8 7 7 7 6 6 8 6 4 5 8 12 15 16 16 14 12 11 10 9 8 8 8 8 8
3 2 3 1 3 1 4 9 12 17 13 12 7 9 8 9 4 6 9 7 7 10 8 7 8 9 6 6 6 6 8 12 16 18 17 14 13 11 10 10 10 10 11 10
9 5 3 3 2 4 10 14 13 9 11 16 18 20 7 7 11 12 13 12 11 9 7 8 8 10 10 10 7 7 7 10 15 19 19 18 17 15 14 13 13 13 13 12
9 7 2 3 2 5 3 2 6 20 14 17 12 7 16 18 14 11 10 12 11 9 8 8 12 12 11 8 5 4 6 9 14 18 21 21 20 18 17 16 16 15 14 14
5 5 3 5 3 8 10 7 8 11 15 16 18 16 7 5 3 6 9 8 11 9 13 17 17 15 13 10 9 8 8 10 14 19 23 23 22 21 20 20 19 18 17 16
5 4 4 2 5 8 5 2 5 6 9 10 20 14 10 7 4 14 6 8 10 15 14 17 17 16 14 12 11 12 13 14 17 19 21 23 24 24 23 22 21 19 18 18
6 2 10 3 4 9 9 5 6 6 6 1 11 13 9 8 9 1 4 3 6 14 16 17 17 15 13 12 13 14 14 18 15 16 19 23 24 25 24 22 22 21 21 20
9 9 5 3 2 12 6 5 11 6 0 3 6 7 10 8 6 3 4 6 8 13 14 15 16 18 15 16 17 17 20 16 15 17 20 24 25 25 23 23 23 23 23 21
7 7 6 11 7 2 7 4 6 4 5 5 4 3 7 8 8 7 6 7 9 12 16 18 19 21 19 19 21 22 21 16 16 18 22 25 25 24 24 25 25 25 24 22
4 3 3 4 3 6 5 5 5 7 5 3 2 4 7 5 5 6 5 7 8 17 20 23 21 22 25 26 27 27 19 17 19 22 25 25 26 25 24 24 26 26 25 23
4 10 6 4 4 5 6 8 10 8 3 3 3 4 5 6 6 7 7 8 16 23 24 23 26 28 32 27 28 24 22 19 22 24 25 26 26 26 26 26 27 27 25 25
5 6 5 5 8 6 4 5 3 7 7 9 8 4 6 6 9 5 7 19 22 23 26 24 27 27 32 26 24 24 23 24 26 28 28 27 26 25 26 25 20 20 19 18
Wind_Direction
32 117 183 196 150 105 126 118 176 241 320 254 241 260 271 265 249 246 248 243 237 222 171 171 165 158 148 144 145 143 135 346 352 321 226 233 262 301 44 46 55 38 301 302
68 220 188 134 140 118 115 116 221 296 356 191 324 278 263 226 237 216 222 222 227 180 186 178 173 164 160 138 118 99 55 32 28 88 123 128 128 129 127 91 87 91 70 47
151 196 157 131 149 130 108 160 191 194 343 60 330 290 303 286 245 252 245 226 208 203 192 173 163 155 141 122 97 78 67 58 56 104 131 134 130 136 137 117 88 50 47 50
201 120 149 121 169 130 157 193 145 142 67 243 29 289 301 283 280 271 276 247 229 196 156 149 154 150 147 123 100 89 85 78 82 115 137 151 130 144 140 126 73 37 23 12
214 151 136 140 201 146 203 138 159 109 99 40 311 226 274 334 306 353 2 18 2 219 164 151 150 148 140 124 109 97 87 86 89 121 149 178 161 152 150 131 39 26 27 23
112 167 156 182 114 139 153 91 55 58 84 336 245 178 272 240 229 312 356 35 51 108 108 110 136 141 137 132 118 104 94 83 79 82 95 123 135 140 153 142 360 14 20 23
118 91 249 145 90 59 100 104 25 355 356 226 342 160 252 272 284 269 299 118 86 103 121 135 140 151 145 137 123 109 95 83 80 81 90 100 115 135 152 127 17 19 18 30
145 255 182 194 171 171 167 145 155 204 200 272 91 233 247 193 8 349 54 123 121 135 145 146 157 159 156 154 145 123 108 100 93 90 89 91 101 109 110 104 86 69 57 51
134 183 54 136 153 139 182 194 152 106 30 35 218 285 300 93 50 57 107 129 154 158 153 164 176 180 175 166 153 149 140 124 114 105 100 99 97 95 97 93 80 67 58 52
199 98 312 151 111 37 162 155 87 14 196 259 279 270 245 352 26 127 187 177 162 170 180 195 194 190 186 182 183 181 179 179 173 156 139 119 101 93 87 90 80 70 66 70
147 97 75 135 212 166 145 191 73 125 143 177 273 260 216 237 255 206 199 193 187 185 199 207 209 203 195 195 198 202 206 207 210 211 205 191 164 155 161 145 105 114 116 105
196 114 153 200 141 100 129 171 147 132 215 233 151 271 288 279 283 210 182 180 191 202 210 220 223 213 207 209 212 216 217 219 219 216 212 207 205 201 200 194 184 172 160 137
181 186 101 58 272 340 200 189 151 114 99 188 154 257 332 350 132 154 162 189 192 194 207 210 205 214 220 222 224 226 225 224 221 217 213 209 208 206 203 194 181 167 155 137
130 148 171 185 193 144 182 198 198 199 227 174 215 237 269 205 179 198 194 188 185 192 187 218 231 228 227 231 236 240 237 232 228 221 218 216 215 207 197 191 189 182 170 156
169 166 163 144 131 142 185 196 197 215 221 220 204 214 211 202 196 197 193 206 210 203 206 201 224 235 251 256 262 252 242 231 226 223 222 220 213 206 200 193 187 179 168 157
181 141 122 98 49 61 237 217 214 225 231 244 224 232 218 216 120 193 213 210 220 217 209 216 218 224 233 247 249 246 238 230 226 224 222 216 209 205 200 192 185 179 169 158
169 129 113 202 343 60 286 209 209 211 211 214 226 229 153 202 195 205 217 225 229 239 235 218 213 216 212 207 230 234 225 215 217 220 219 214 209 205 199 192 186 182 176 169
162 134 86 133 102 228 248 311 234 213 223 215 233 183 203 219 219 226 235 246 247 231 224 216 209 199 198 211 224 230 222 217 215 215 213 210 207 203 197 193 191 185 182 175
162 130 122 162 203 301 279 187 176 181 241 218 218 224 205 194 79 269 222 209 223 214 209 214 203 195 197 205 212 216 221 219 217 216 212 208 206 201 198 195 192 187 182 176
109 124 128 127 183 220 255 264 124 92 278 216 209 213 180 142 202 249 172 197 217 211 201 187 187 194 204 210 212 216 219 218 223 222 221 213 207 204 200 199 193 191 189 181
158 135 199 174 220 282 239 163 147 110 234 258 184 204 147 188 216 204 157 183 219 198 190 188 198 208 223 225 221 223 225 229 234 224 217 211 206 204 203 196 195 190 183 183
168 168 187 132 170 263 149 74 166 210 188 169 188 185 184 211 137 166 176 172 174 169 182 198 208 225 235 235 227 226 231 242 223 213 209 206 203 201 199 196 192 189 185 184
193 189 175 188 208 206 207 188 219 206 182 214 178 193 203 173 210 196 223 193 193 198 205 209 222 239 240 237 232 231 241 227 215 207 205 203 199 199 198 193 188 184 189 184
248 185 180 107 255 212 218 242 251 222 228 97 182 180 166 197 174 194 210 212 222 227 223 228 232 236 245 237 232 233 233 221 209 204 200 196 194 194 195 195 194 188 188 186
182 145 165 270 291 300 256 232 232 241 125 161 198 176 203 183 207 211 218 219 225 233 239 238 234 241 247 244 234 229 222 213 205 203 197 192 193 192 189 197 198 199 200 200
187 165 168 221 201 181 196 216 216 194 209 213 217 236 235 197 219 188 226 228 230 243 252 243 243 246 251 245 230 224 217 211 204 195 192 188 185 186 191 192 187 204 202 199
Height
823 829 833 831 828 832 840 840 841 841 836 838 841 843 831 830 830 831 829 828 827 827 830 832 833 835 836 836 838 839 840 840 841 841 842 842 843 845 846 846 846 846 846 845
828 830 827 826 832 833 835 839 841 839 838 841 842 838 826 825 821 818 819 822 822 826 828 830 833 835 836 836 837 837 838 839 839 840 841 842 844 846 847 847 846 847 846 845
826 823 825 827 835 834 838 842 842 841 841 843 847 836 827 817 816 813 812 813 816 819 823 827 830 834 837 838 838 837 838 838 838 839 840 842 844 846 847 847 847 847 846 845
824 824 829 831 835 834 840 838 839 839 845 850 847 847 830 817 815 812 809 811 813 815 820 825 829 832 836 838 838 838 838 838 838 839 841 843 845 846 848 848 847 847 846 845
824 827 831 833 829 830 835 838 841 842 849 848 851 856 832 823 812 810 812 812 815 815 818 823 828 831 835 839 839 839 839 838 838 839 841 843 843 845 847 848 848 848 846 846
824 824 825 825 826 826 838 841 849 856 855 873 850 852 840 823 812 811 813 816 819 820 822 826 830 833 836 838 839 839 840 840 840 840 841 842 843 845 847 848 848 847 847 846
825 825 823 822 829 830 831 840 878 875 887 862 859 861 834 818 815 815 815 820 823 825 826 828 831 833 835 838 839 840 840 840 841 841 842 842 843 844 847 847 847 847 847 846
832 842 823 819 821 827 837 837 863 854 861 853 857 847 821 816 820 820 818 822 824 826 828 830 831 833 835 836 837 839 840 841 842 843 843 843 844 845 845 846 846 846 846 846
828 820 820 819 818 820 832 837 837 861 905 875 848 837 819 816 819 823 825 824 825 826 829 830 832 833 834 835 837 839 840 842 843 843 844 844 845 845 845 845 846 846 846 846
810 828 823 820 818 821 821 829 843 864 871 882 850 842 819 812 813 823 825 823 825 827 828 828 829 830 833 835 837 839 840 841 842 843 844 844 845 845 846 846 846 846 846 847
806 808 826 819 818 822 824 828 836 840 857 855 863 830 826 815 815 817 822 823 823 825 826 826 827 829 831 832 834 835 836 838 839 841 842 843 844 845 845 845 844 845 846 847
800 812 824 813 821 820 816 823 828 843 849 861 854 836 820 821 820 819 821 823 823 822 823 824 826 828 830 830 831 831 833 834 836 838 840 842 843 843 844 844 844 845 847 848
799 817 840 829 821 819 815 815 821 832 838 843 845 831 818 817 817 819 821 821 820 820 821 822 825 826 826 827 828 828 829 832 834 836 837 839 840 842 843 844 845 846 847 848
790 807 806 809 810 809 819 812 809 813 818 827 822 815 812 814 816 818 819 819 817 816 817 820 821 821 822 822 823 826 828 831 833 834 836 837 838 839 841 843 844 845 847 848
789 809 804 803 803 806 806 805 812 806 806 811 810 813 808 811 809 810 813 815 814 814 814 815 817 817 818 818 819 820 823 826 828 830 832 834 837 839 840 840 842 844 847 848
790 800 803 821 812 809 805 808 807 802 804 804 807 807 803 797 804 806 805 806 808 808 810 809 810 813 812 813 815 816 818 820 824 826 830 833 836 838 839 839 841 844 847 848
789 799 806 805 825 812 811 803 802 797 795 789 795 781 799 799 797 798 798 799 795 796 798 802 803 805 807 809 811 812 813 814 817 822 827 830 832 834 836 838 840 842 845 847
784 792 809 827 827 816 778 789 784 779 777 783 778 784 782 780 781 785 786 785 789 793 795 797 800 802 805 807 809 810 811 812 814 817 819 823 828 831 833 836 838 841 844 847
780 793 827 819 856 804 770 785 787 783 773 775 775 772 782 784 787 787 780 783 784 785 787 791 795 799 801 803 804 806 807 809 811 812 813 816 821 826 829 832 835 839 842 846
788 789 805 863 810 826 776 767 773 771 773 760 761 770 781 787 793 768 774 776 777 780 783 788 792 795 797 798 800 801 801 803 804 806 811 813 817 821 824 829 833 837 841 846
786 798 787 843 819 805 770 772 771 798 774 753 761 761 780 778 764 768 768 772 773 777 781 785 788 790 792 794 795 796 798 797 799 802 806 811 814 818 821 825 830 834 837 842
765 782 790 816 807 790 768 774 769 761 755 755 760 762 767 765 769 768 770 772 774 775 780 782 785 786 786 789 790 791 791 794 795 797 802 806 810 814 818 822 827 831 834 839
760 760 778 765 762 759 765 758 757 757 753 753 755 757 761 766 768 769 770 772 773 775 776 777 778 779 781 783 784 784 785 790 792 795 799 804 808 811 815 819 825 828 833 836
769 774 766 763 762 758 757 758 756 754 753 756 755 754 760 760 763 766 768 770 770 770 771 771 772 772 773 775 775 777 782 784 787 791 796 801 805 809 813 818 821 823 828 832
758 759 772 772 770 768 761 753 748 750 754 755 755 755 757 760 762 762 762 764 763 763 763 765 765 763 762 766 769 774 777 780 784 789 793 797 802 805 809 813 817 819 822 826
757 757 753 754 747 744 740 745 745 750 751 753 754 756 754 754 754 755 756 754 754 755 755 756 756 756 756 759 763 768 771 775 779 782 787 792 797 802 806 810 815 818 822 825